Butte, MT

6:00 AM MST on December 03, 2016 (GMT -0700)
Mooney

Weather History for KBTM - January, 2012

Change the Weather History Date:

Monday, January 16, 2012

  Actual Average Record
Temperature  
Mean Temperature 8 °F 20 °F  
Max Temperature 19 °F 32 °F 49 °F (1974)
Min Temperature -4 °F 8 °F -32 °F (1957)
Degree Days  
Heating Degree Days 57 45  
Month to date heating degree days 673 734  
Since 1 July heating degree days 4398 4698  
Cooling Degree Days 0 0  
Month to date cooling degree days 0 0  
Year to date cooling degree days 0 0  
Moisture  
Dew Point 3 °F    
Average Humidity 70    
Maximum Humidity 92    
Minimum Humidity 47    
Precipitation  
Precipitation T in 0.02 in 0.20 in (1906)
Month to date precipitation 0.02 0.26  
Year to date precipitation 0.02 0.26  
Sea Level Pressure  
Sea Level Pressure 29.90 in    
Wind  
Wind Speed 2 mph (SE)    
Max Wind Speed 12 mph    
Max Gust Speed 17 mph    
Visibility 7 miles    
Events Snow    
T = Trace of Precipitation, MM = Missing Value Source: NWS Daily Summary

Daily Weather History Graph

Daily Weather History Graph

Search for Another Location

Airport or City:

Trip Planner

Search our weather history database for the weather conditions in past years. The results will help you decide how hot, cold, wet, or windy it might be!

Date:

Astronomy

Jan. 16, 2012 Rise Set
Actual Time 8:07 AM MST 5:12 PM MST
Civil Twilight 7:34 AM MST 5:45 PM MST
Nautical Twilight 6:57 AM MST 6:22 PM MST
Astronomical Twilight 6:21 AM MST 6:58 PM MST
Moon 1:14 AM MST (1/16) 11:33 AM MST (1/16)
Length of Visible Light 10h 11m
Length of Day
9h 04m
Last Quarter, 45% of the Moon is Illuminated
Jan 16
Last Quarter
Jan 23
New
Jan 30
First Quarter
Feb 7
Full
Feb 14
Last Quarter

Hourly Weather History & Observations

Time (MST) Temp. Windchill Dew Point Humidity Pressure Visibility Wind Dir Wind Speed Gust Speed Precip Events Conditions
12:08 AM 12.2 °F - 10.4 °F 92% 29.71 in 3.0 mi Calm Calm - 0.00 in Snow Light Snow
12:20 AM 12.2 °F 6.1 °F 10.4 °F 92% 29.70 in 3.0 mi NNW 3.5 mph - 0.00 in Snow Light Snow
12:31 AM 12.2 °F - 8.6 °F 85% 29.70 in 3.0 mi Calm Calm - 0.00 in Snow Light Snow
12:53 AM 10.9 °F 4.7 °F 8.1 °F 88% 29.91 in 3.0 mi NNW 3.5 mph - 0.00 in Snow Light Snow
1:22 AM 10.4 °F - 8.6 °F 92% 29.71 in 1.8 mi Calm Calm - 0.00 in Snow Light Snow
1:34 AM 10.4 °F - 8.6 °F 92% 29.70 in 2.0 mi Calm Calm - 0.00 in Snow Light Snow
1:53 AM 10.0 °F - 6.1 °F 84% 29.91 in 3.0 mi Calm Calm - 0.00 in Snow Light Snow
2:03 AM 10.4 °F - 6.8 °F 85% 29.71 in 2.5 mi Calm Calm - 0.00 in Snow Light Snow
2:12 AM 8.6 °F 0.1 °F 6.8 °F 92% 29.71 in 4.0 mi East 4.6 mph - 0.00 in Snow Light Snow
2:34 AM 8.6 °F - 6.8 °F 92% 29.71 in 5.0 mi Calm Calm - 0.00 in   Overcast
2:53 AM 9.0 °F - 6.1 °F 88% 29.92 in 4.0 mi Calm Calm - 0.00 in   Overcast
3:53 AM 9.0 °F - 5.0 °F 84% 29.92 in 8.0 mi Calm Calm - 0.00 in   Overcast
4:09 AM 8.6 °F 2.0 °F 5.0 °F 85% 29.72 in 2.5 mi ENE 3.5 mph - 0.00 in Snow Light Snow
4:28 AM 8.6 °F - 6.8 °F 92% 29.72 in 3.0 mi Calm Calm - 0.00 in Snow Light Snow
4:45 AM 8.6 °F - 6.8 °F 92% 29.72 in 1.8 mi Calm Calm - 0.00 in Snow Light Snow
4:49 AM 8.6 °F - 6.8 °F 92% 29.72 in 2.0 mi Calm Calm - 0.00 in Snow Light Snow
4:53 AM 8.1 °F - 5.0 °F 87% 29.94 in 3.0 mi Calm Calm - 0.00 in Snow Light Snow
5:00 AM 8.6 °F - 6.8 °F 92% 29.72 in 8.0 mi Calm Calm - 0.00 in Snow Light Snow
5:53 AM 7.0 °F -1.7 °F 3.9 °F 87% 29.98 in 10.0 mi SE 4.6 mph - 0.00 in   Overcast
6:32 AM 1.4 °F - -0.4 °F 92% 29.75 in 10.0 mi Calm Calm - N/A   Partly Cloudy
6:53 AM 1.9 °F - -2.0 °F 83% 30.01 in 8.0 mi Calm Calm - N/A   Partly Cloudy
7:12 AM -0.4 °F - -4.0 °F 85% 29.76 in 5.0 mi Calm Calm - N/A   Mostly Cloudy
7:51 AM -0.4 °F - -4.0 °F 85% 29.76 in 10.0 mi Calm Calm - N/A   Overcast
7:53 AM -0.0 °F - -2.9 °F 88% 30.02 in 10.0 mi Calm Calm - N/A   Overcast
8:19 AM -0.4 °F -8.3 °F -4.0 °F 85% 29.77 in 10.0 mi SSE 3.5 mph - N/A   Overcast
8:53 AM 1.0 °F - -2.0 °F 87% 30.04 in 4.0 mi Calm Calm - N/A   Overcast
9:05 AM 1.4 °F - -2.2 °F 85% 29.78 in 8.0 mi Calm Calm - N/A   Overcast
9:53 AM 6.1 °F - 1.9 °F 83% 30.04 in 8.0 mi Calm Calm - 0.00 in   Overcast
10:35 AM 8.6 °F - 6.8 °F 92% 29.80 in 8.0 mi Calm Calm - N/A   Mostly Cloudy
10:53 AM 9.0 °F - 6.1 °F 88% 30.04 in 8.0 mi Calm Calm - N/A   Mostly Cloudy
11:53 AM 12.0 °F - 6.1 °F 77% 30.03 in 10.0 mi Calm Calm - N/A   Mostly Cloudy
12:53 PM 16.0 °F - 6.1 °F 65% 30.01 in 10.0 mi Calm Calm - N/A   Overcast
1:53 PM 15.1 °F - 3.9 °F 61% 30.02 in 10.0 mi Calm Calm - N/A   Overcast
2:53 PM 16.0 °F - 3.0 °F 57% 30.03 in 10.0 mi Calm Calm - N/A   Overcast
3:53 PM 18.0 °F 6.1 °F -0.9 °F 44% 30.04 in 10.0 mi West 10.4 mph 16.1 mph N/A   Scattered Clouds
4:53 PM 14.0 °F - 1.0 °F 56% 30.09 in 10.0 mi Calm Calm - N/A   Scattered Clouds
5:53 PM 8.1 °F 1.4 °F -0.9 °F 67% 30.13 in 10.0 mi SSW 3.5 mph - N/A   Partly Cloudy
6:53 PM 10.4 °F 0.8 °F -0.4 °F 62% 29.88 in 10.0 mi SW 5.8 mph - N/A   Clear
7:53 PM 8.1 °F - -2.9 °F 61% 30.19 in 10.0 mi Calm Calm - N/A   Clear
8:53 PM 12.0 °F - -2.0 °F 53% 30.16 in 10.0 mi Calm Calm - N/A   Clear
9:53 PM 10.9 °F - -2.9 °F 54% 30.15 in 10.0 mi Calm Calm - N/A   Overcast
10:53 PM 12.0 °F 4.1 °F -2.9 °F 51% 30.15 in 10.0 mi East 4.6 mph - N/A   Partly Cloudy
11:53 PM 10.9 °F 2.9 °F -4.0 °F 51% 30.15 in 10.0 mi Variable 4.6 mph - N/A   Clear